Theta_e
344 345 346 346 346 347 347 346 346 346 346 346 346 345 344 345 347 347 348 349 349 349 350 350 349 348 347 346 344 344 344 344 343 343 342 342 342 343 344 344 345 346 346 345 345 344 345 347 349 349 349 350 350 348 348 347 348 350 352 351 351 351 351 352 352 351 350 350 350 349 349 348 345 344 346 345 344 343 343 343 343 343 342 343 343
344 345 345 345 346 346 347 347 346 346 348 348 347 347 348 348 349 349 349 351 352 351 350 350 351 350 348 346 345 345 345 345 344 344 343 342 342 342 343 343 346 348 349 348 347 346 346 347 348 347 346 346 345 346 348 348 348 349 351 351 351 351 351 351 351 351 351 350 349 348 348 348 345 344 344 344 343 343 344 344 344 344 344 345 345
343 345 345 345 346 347 346 347 347 346 349 350 349 349 351 351 350 350 351 352 353 353 352 351 351 351 349 347 346 346 348 348 347 346 345 344 343 343 342 343 345 347 348 348 348 346 345 345 346 347 347 347 347 349 352 351 350 350 351 351 352 351 352 352 352 353 353 350 349 349 348 344 340 339 339 340 342 345 345 346 346 345 344 344 343
344 344 344 344 345 346 346 346 348 348 350 352 350 350 352 353 351 351 353 353 353 353 354 353 352 351 351 349 348 349 351 352 351 350 349 347 347 346 344 343 344 346 347 349 351 349 346 346 347 350 351 352 351 352 353 353 352 351 351 351 352 350 351 353 353 353 353 352 350 349 346 340 335 334 333 334 339 345 347 347 346 344 343 342 342
344 344 344 345 345 347 347 347 348 350 352 353 352 351 353 353 353 353 354 354 354 354 355 354 353 352 352 352 350 351 353 353 353 354 352 349 349 350 349 346 345 346 348 350 351 351 349 348 349 352 353 353 353 353 353 353 353 353 352 352 352 351 351 353 353 352 352 353 351 346 342 337 333 331 330 332 335 341 344 344 344 344 342 341 342
343 343 345 346 347 350 352 351 349 350 352 353 353 353 353 354 355 354 353 353 353 354 353 354 354 354 354 353 353 353 354 353 353 354 352 349 349 352 352 351 351 351 351 352 352 352 350 349 350 352 352 352 351 352 352 352 353 353 353 352 351 350 351 351 351 352 352 352 351 347 341 336 334 332 333 335 337 339 340 340 340 340 339 338 338
346 347 349 349 348 351 355 353 351 351 350 351 352 354 354 355 354 353 353 352 353 353 352 352 353 354 354 353 354 354 354 354 354 354 352 350 349 351 352 353 355 354 353 354 354 354 354 354 355 355 353 352 352 351 351 351 352 352 352 352 351 349 348 349 349 350 351 351 351 348 340 336 337 338 339 341 342 343 344 343 340 339 339 339 339
349 351 353 351 349 351 353 353 352 352 351 350 351 352 354 355 354 352 352 353 353 353 352 351 351 352 353 353 353 354 352 354 355 354 353 352 351 352 353 353 355 355 355 355 356 356 354 352 354 355 354 353 352 351 350 349 349 350 351 351 351 349 349 349 349 349 349 349 348 344 339 338 341 342 343 344 345 345 346 347 346 345 344 343 342
351 353 353 352 350 350 352 352 352 352 353 352 351 352 352 354 353 351 351 351 352 352 352 351 351 352 353 353 354 353 350 351 353 353 353 352 352 353 353 353 355 355 355 355 356 356 354 350 351 353 353 352 351 349 347 347 347 348 349 350 351 350 350 350 350 349 348 346 344 342 342 343 343 343 345 345 346 347 347 348 349 348 347 345 343
351 352 352 352 351 350 351 352 352 351 352 352 351 351 351 352 352 351 350 349 350 351 351 350 351 351 352 352 353 352 350 352 353 353 353 353 352 352 352 352 352 353 353 354 354 354 354 352 351 351 352 351 350 348 347 347 346 346 347 349 350 350 350 350 350 350 348 347 346 346 346 346 345 346 347 346 346 347 347 348 348 348 347 346 344
350 351 352 352 352 351 350 351 352 351 350 350 350 350 350 349 348 349 350 349 348 348 348 349 349 349 350 350 350 350 352 353 353 353 353 353 353 353 351 350 350 351 351 352 352 352 351 350 349 349 351 351 350 350 350 349 347 346 347 348 349 349 350 351 350 349 349 349 349 349 349 348 348 348 348 347 347 347 346 348 349 349 349 349 347
349 348 350 352 352 352 350 350 351 351 350 350 349 349 348 347 346 346 347 347 346 345 346 347 347 347 348 349 349 350 351 352 352 352 353 353 353 353 352 350 348 348 349 349 350 350 349 348 348 349 349 350 350 351 350 349 349 347 347 348 349 350 352 351 350 349 350 351 351 350 350 349 349 348 347 347 347 346 346 347 348 349 350 350 349
347 345 348 351 352 351 351 351 351 351 351 350 349 348 347 347 347 346 345 345 345 345 345 346 346 346 346 347 348 348 349 349 348 348 349 350 350 351 350 349 347 346 347 347 346 347 346 346 347 348 349 349 349 349 348 348 348 347 347 348 350 351 352 352 351 352 352 352 351 351 350 349 348 347 348 349 348 348 348 348 348 349 349 349 350
346 345 347 351 352 351 350 351 351 351 351 350 349 348 348 347 347 346 346 345 345 345 345 345 346 346 346 346 346 346 347 346 345 344 345 346 348 348 348 347 346 346 347 346 347 346 346 345 345 345 346 346 346 347 347 347 345 345 346 348 349 351 352 352 353 353 353 352 352 351 350 349 348 348 349 350 350 350 350 350 350 350 350 351 351
346 346 346 349 352 352 350 349 350 351 352 350 349 349 348 348 347 347 347 347 347 346 346 346 346 346 346 346 346 346 347 346 346 345 345 345 345 346 346 346 346 346 347 348 348 348 347 346 345 344 344 343 342 343 344 345 344 344 344 345 347 349 351 352 352 352 352 352 351 350 350 350 350 350 351 351 351 351 351 351 351 351 351 351 350
348 348 348 350 352 352 348 346 348 351 352 351 350 350 350 349 348 347 347 348 348 348 347 347 347 347 347 347 347 347 347 347 347 347 346 346 346 345 345 345 345 346 347 348 348 348 348 347 346 346 345 344 342 341 341 342 342 342 342 343 345 348 349 349 349 350 350 350 350 350 351 351 351 352 352 351 351 351 350 350 350 350 351 351 350
349 349 350 352 352 351 348 347 351 352 351 350 349 349 350 350 349 349 348 348 349 348 348 348 348 348 348 348 349 349 349 349 348 348 348 347 347 346 346 345 345 345 346 348 348 348 347 347 347 347 346 346 345 344 343 343 342 342 343 344 346 347 348 348 348 349 350 350 350 350 351 351 351 351 350 350 350 350 350 350 349 349 348 347 346
349 349 349 350 349 349 349 350 352 353 352 350 349 348 348 348 348 347 347 347 348 347 347 347 346 346 346 347 348 349 349 349 348 348 348 348 348 348 348 347 347 346 347 347 347 348 348 348 348 349 348 347 347 347 347 347 346 346 346 347 348 349 348 348 349 349 349 349 349 349 349 349 349 349 349 349 349 348 348 347 346 345 343 339 338
351 349 347 347 347 349 350 351 352 353 352 351 350 348 347 347 347 347 348 348 348 348 348 348 348 348 347 347 347 348 348 348 348 348 348 348 349 349 349 349 349 348 348 348 348 349 349 349 350 349 348 348 348 349 349 348 348 348 348 348 348 348 347 347 346 346 346 345 345 346 346 347 347 347 347 346 345 343 341 338 336 335 333 332 332
352 350 349 350 350 351 351 350 351 351 352 352 350 349 349 348 348 348 348 348 348 348 348 348 348 348 348 348 348 348 348 348 348 348 348 348 348 349 349 350 350 350 350 350 350 350 350 349 349 348 348 348 348 348 348 347 347 346 344 344 343 342 341 340 340 340 340 340 341 343 343 342 343 343 341 340 339 336 330 325 322 322 325 327 328
350 349 349 350 350 349 347 347 348 348 348 347 346 347 346 345 345 347 347 346 346 346 346 346 346 346 345 345 346 346 346 346 346 346 346 346 346 347 348 349 349 349 349 349 350 350 349 349 348 348 348 347 345 344 342 340 338 336 334 334 333 332 333 334 334 337 338 339 341 339 335 332 333 334 333 330 329 325 319 316 317 319 322 325 325
346 346 346 346 345 345 345 345 345 345 344 343 344 345 345 343 344 346 345 345 345 345 345 345 344 343 343 342 342 342 342 341 341 341 342 342 344 345 346 347 347 348 348 347 348 347 346 345 345 343 341 339 336 334 331 328 326 325 325 326 326 327 330 332 333 336 338 339 339 335 328 323 322 322 320 317 316 314 312 312 313 315 319 322 323
343 343 343 344 344 344 344 344 344 344 344 344 344 345 345 344 344 343 342 343 343 341 341 341 340 340 338 335 334 334 335 334 334 334 334 334 336 337 338 340 341 343 343 343 343 342 339 338 336 333 330 328 326 323 322 321 321 320 321 323 325 327 331 333 333 334 334 332 331 326 320 315 313 311 310 309 309 309 308 308 308 310 312 314 315
340 340 341 342 343 343 342 342 342 341 341 341 341 341 341 340 339 338 337 337 336 333 332 332 331 331 329 327 326 326 327 327 327 327 327 327 327 328 329 330 333 336 337 337 337 336 334 331 328 325 322 320 318 318 320 320 320 320 321 323 324 326 328 328 327 326 326 324 320 316 312 309 308 307 307 307 307 307 307 307 307 307 307 307 308
336 335 335 335 335 335 334 333 332 331 331 332 332 333 332 332 331 331 329 329 328 327 326 326 326 326 326 325 325 323 323 324 324 323 322 322 322 322 322 321 321 324 326 326 327 327 325 322 319 318 316 314 315 320 323 323 322 322 324 324 325 324 323 322 321 321 320 318 315 311 308 306 306 306 306 306 306 307 307 306 306 306 306 307 308
330 328 327 327 327 327 326 326 327 327 326 325 325 324 324 325 326 326 326 326 325 325 325 325 325 327 327 327 325 322 322 324 324 323 323 323 323 323 322 319 316 314 313 314 315 316 315 314 313 314 314 313 316 322 325 324 324 325 325 325 325 325 323 321 320 319 319 318 315 311 307 305 305 306 306 306 306 306 306 306 306 306 307 307 308
328 326 326 325 325 325 325 325 326 326 326 325 324 323 323 324 324 325 327 328 326 325 326 326 326 328 329 329 327 325 325 327 327 327 327 327 327 326 325 324 321 315 308 307 309 310 311 311 313 316 317 317 320 324 326 326 325 325 325 325 325 324 323 322 320 320 320 319 315 310 307 306 305 305 305 306 306 306 306 306 306 306 306 306 307
324 324 325 325 324 325 325 325 325 326 326 327 327 326 325 326 326 326 326 325 324 324 324 325 325 326 327 328 328 328 328 329 330 329 328 328 328 327 327 326 321 313 306 305 306 307 309 313 317 320 321 322 325 327 326 326 326 325 324 325 324 323 323 322 321 319 318 315 311 307 306 306 305 305 305 305 306 306 306 306 306 306 307 307 307
317 317 320 324 326 326 327 328 328 327 328 329 328 327 325 326 328 328 327 326 326 325 325 325 326 326 326 326 327 328 329 330 329 329 328 328 327 327 326 322 315 308 305 305 306 308 313 320 323 324 323 323 325 326 326 325 325 325 324 324 323 322 321 319 316 314 312 310 308 307 306 306 306 306 306 306 307 307 307 307 308 308 307 308 307
313 315 319 324 326 324 324 327 327 325 326 328 326 325 326 327 328 329 329 328 328 327 326 327 327 326 325 325 325 326 326 327 328 327 326 324 320 318 316 313 308 306 305 306 308 315 322 325 326 325 325 324 324 324 324 324 324 324 323 322 321 319 316 313 311 310 309 308 307 307 307 307 307 307 308 308 308 308 308 308 308 308 308 308 307
311 314 319 324 324 321 319 323 323 321 321 324 324 325 327 327 326 327 327 327 327 327 327 327 327 325 324 324 323 322 321 320 320 319 316 313 310 308 308 307 306 306 307 307 312 320 325 325 324 325 325 325 324 323 323 323 323 321 320 317 315 314 312 312 312 311 310 309 309 309 309 308 309 309 309 309 309 309 309 309 309 308 308 307 307
309 310 314 319 321 318 316 319 321 320 319 319 321 323 325 325 325 325 325 325 325 325 323 323 323 321 319 318 317 315 313 312 311 309 308 307 307 306 306 306 305 307 309 310 314 321 324 323 323 323 324 324 324 323 322 321 320 317 316 314 313 313 314 314 314 312 311 311 311 311 310 310 310 310 310 310 310 310 310 309 308 308 308 307 307
313 312 311 314 316 316 317 318 320 320 319 317 317 318 318 318 319 320 320 319 319 318 317 317 316 315 315 314 313 313 312 311 310 309 308 308 308 307 307 306 306 309 312 313 315 320 323 322 322 322 322 322 322 321 320 319 317 316 316 315 315 315 315 315 314 313 312 311 311 311 311 311 311 311 311 311 311 311 310 309 309 308 308 307 307
321 320 318 318 317 317 318 319 318 316 316 315 315 314 313 311 312 313 316 317 317 316 316 316 315 315 315 315 314 314 313 311 310 309 308 308 307 307 307 307 307 310 313 315 316 320 322 322 321 321 321 321 321 320 319 318 317 317 317 317 317 316 316 315 315 313 312 312 312 311 311 311 311 311 311 311 311 310 310 309 309 309 308 308 307
322 323 323 323 321 320 320 320 317 313 311 311 311 310 310 311 311 313 316 317 317 317 316 316 316 316 316 315 314 314 313 312 311 310 309 309 309 308 307 307 308 310 315 318 320 321 322 322 321 321 320 320 320 319 319 318 318 318 318 317 317 316 316 315 315 314 313 312 312 312 312 311 311 311 311 310 310 310 309 309 309 309 308 308 308
317 318 318 317 316 316 316 316 313 310 308 308 308 309 310 311 313 315 316 318 319 319 319 318 318 318 318 317 316 316 315 314 312 311 310 310 310 310 310 309 308 309 315 320 322 322 322 322 321 320 320 319 319 319 318 318 317 317 317 316 316 316 315 315 315 314 313 312 311 311 311 311 311 311 310 310 310 310 309 309 309 308 308 307 307
312 312 311 311 310 310 310 310 310 309 308 308 308 310 312 314 316 317 318 319 320 321 322 321 320 320 319 318 318 317 316 316 314 312 311 311 311 311 312 313 311 311 315 320 321 320 321 321 320 320 319 318 318 318 317 317 316 316 316 315 315 315 315 314 314 313 312 311 311 310 310 310 310 310 310 310 310 309 309 309 308 307 306 305 305
313 312 312 313 312 312 312 312 312 311 310 308 308 309 312 314 316 317 319 320 320 321 322 322 321 321 320 319 318 318 317 317 316 316 315 314 313 311 310 311 313 314 316 318 319 319 320 320 319 319 318 318 317 317 316 316 316 315 315 314 314 314 314 313 313 312 312 311 311 310 310 309 309 309 309 308 308 308 307 307 306 305 304 304 303
314 315 314 315 315 314 314 314 313 313 311 310 308 308 308 310 311 313 316 318 319 320 321 321 321 320 319 318 317 317 317 318 318 318 316 315 315 312 308 307 310 314 316 317 317 318 319 319 319 318 318 318 317 316 316 316 315 315 314 314 314 313 313 312 312 312 311 311 311 310 309 308 308 308 307 307 306 306 305 305 304 303 303 302 302
315 315 315 315 315 315 315 314 314 313 313 312 310 309 307 306 306 308 310 313 316 318 319 320 320 319 319 318 318 318 319 319 318 317 316 315 314 312 309 308 310 313 315 315 315 316 316 316 317 317 317 317 317 316 316 315 315 315 315 314 314 313 313 312 312 311 311 310 309 309 308 307 307 306 306 305 305 304 304 303 303 302 302 302 302
315 315 315 315 315 315 315 315 315 315 314 314 313 312 310 309 309 309 310 311 313 315 317 318 318 318 318 319 319 319 318 318 317 316 315 315 313 310 309 309 311 313 314 314 314 314 314 315 315 315 315 315 315 314 314 313 313 312 312 312 311 311 311 310 310 310 309 308 308 307 306 306 305 305 304 303 303 303 302 302 302 301 301 301 302
315 315 316 316 316 315 315 315 316 315 315 315 315 314 313 313 313 313 313 312 312 314 315 316 318 318 319 319 319 318 317 316 315 314 314 313 312 310 310 310 311 312 313 313 313 313 313 313 313 313 313 312 312 312 311 311 310 310 310 309 309 309 309 308 308 308 307 307 306 306 305 305 304 303 302 302 301 301 301 300 300 300 300 300 300
314 315 315 315 315 315 315 315 315 315 315 315 315 315 314 314 314 314 313 312 312 313 315 316 317 318 318 317 317 317 316 315 314 313 313 311 310 310 311 311 311 312 311 311 311 311 311 310 310 310 309 309 309 309 309 309 308 308 308 308 308 307 307 307 306 306 305 305 304 304 303 303 302 301 300 300 299 299 299 299 299 299 299 299 299
316 315 315 314 315 315 315 314 314 314 315 315 314 313 314 314 313 312 312 311 312 312 314 316 316 316 316 316 316 315 314 314 313 312 311 310 309 310 310 311 311 311 310 310 310 309 309 308 308 308 308 307 307 307 307 306 306 306 306 306 306 306 306 305 304 304 303 303 302 302 301 300 300 299 299 298 298 297 297 297 297 298 298 298 298
320 318 316 315 314 314 314 314 314 313 313 312 312 312 313 313 312 311 311 312 313 313 314 315 315 315 315 315 314 313 313 312 311 310 309 309 309 310 310 309 309 309 309 308 308 308 307 307 307 307 307 306 306 306 306 305 305 304 304 304 304 304 303 303 302 301 301 301 300 300 300 299 299 298 298 297 297 296 296 297 297 297 297 298 297
321 319 318 317 316 315 315 315 315 313 311 310 310 312 313 313 313 312 311 312 314 315 314 314 314 314 314 313 313 313 312 311 310 310 310 310 310 309 309 308 307 307 306 306 306 306 306 306 306 306 306 305 305 305 305 304 303 303 303 302 302 302 301 301 300 300 299 299 299 298 298 298 297 297 296 296 296 296 296 296 297 297 297 297 296
321 320 319 318 318 317 316 316 316 316 313 311 310 312 313 314 314 313 312 312 313 313 313 313 313 313 313 313 312 312 311 311 310 310 310 309 309 308 307 307 306 306 306 306 306 305 305 305 305 304 304 304 304 304 303 303 302 301 300 300 300 300 300 299 299 299 299 298 298 297 297 296 296 296 296 296 296 296 296 297 297 296 296 296 296
320 321 320 319 318 318 317 317 317 318 316 314 312 313 313 314 315 314 313 313 312 311 311 312 313 313 313 312 312 311 311 310 310 309 308 308 308 307 307 307 307 306 306 305 305 304 304 303 303 303 302 302 302 301 301 300 299 299 298 298 298 298 298 298 298 298 297 297 296 296 296 295 295 295 295 296 296 296 296 296 296 296 295 295 296
317 319 320 320 318 318 318 318 318 318 317 316 315 314 314 314 315 314 313 312 312 311 311 311 312 312 312 312 311 311 310 309 308 307 308 308 307 307 306 306 305 304 303 303 302 302 301 301 300 300 300 299 299 299 298 298 298 297 297 297 297 297 297 297 297 296 296 296 296 295 295 295 295 295 295 296 296 296 296 295 295 295 295 295 295
315 316 318 319 319 318 318 319 318 318 317 316 316 315 314 314 315 314 312 312 313 313 312 312 312 312 312 311 311 309 308 306 306 305 306 306 305 304 303 303 302 301 301 301 301 300 299 299 299 298 298 298 298 297 297 297 297 296 296 296 296 296 296 296 296 296 296 295 295 295 295 295 295 295 295 295 295 295 295 294 294 294 295 295 295
315 315 316 318 319 319 318 318 317 317 317 316 315 314 314 314 314 313 312 312 313 313 313 312 312 311 311 310 308 307 306 305 304 304 303 303 303 302 301 301 301 300 300 300 300 299 298 298 298 298 298 298 297 297 296 296 296 296 296 296 296 296 296 296 296 296 295 295 295 295 295 294 294 294 294 294 294 294 293 294 294 294 295 294 294
Wind_Speed
24 23 22 20 20 19 18 18 17 16 16 16 15 15 15 15 14 13 13 12 12 13 13 14 14 13 12 11 11 10 10 10 10 10 10 10 10 10 10 9 9 8 7 7 7 8 9 10 9 8 8 8 9 9 9 9 8 7 7 8 9 9 10 12 14 16 15 14 15 15 13 12 12 10 10 11 10 9 9 10 9 8 9 10 12
24 23 22 21 20 19 18 18 18 17 17 16 16 15 15 14 13 14 14 13 12 13 12 12 12 12 12 12 11 10 10 10 10 9 9 9 9 10 10 9 8 7 6 5 6 7 9 10 10 8 8 8 8 7 6 6 8 9 9 9 9 8 9 11 13 16 17 15 14 13 11 11 11 10 10 11 11 11 12 12 10 9 9 12 13
24 23 23 21 19 19 18 17 18 18 16 16 16 15 15 14 14 14 14 14 13 13 11 10 11 12 12 11 11 9 9 9 9 9 9 10 10 10 10 9 8 8 7 6 6 7 9 10 10 9 8 7 6 6 4 5 7 10 10 9 10 9 9 11 13 14 16 15 14 13 12 12 12 12 12 12 11 12 14 13 11 9 9 11 13
23 23 23 21 20 19 19 18 18 18 16 15 15 15 15 15 15 15 13 13 13 13 12 11 10 11 11 11 11 10 8 8 8 7 7 9 9 10 10 10 10 9 8 7 6 7 8 9 9 8 7 6 6 6 5 6 7 9 9 10 11 10 8 10 12 12 14 15 15 14 14 15 15 14 15 13 10 10 12 12 12 11 11 12 13
23 23 22 21 20 18 17 17 19 18 17 16 15 15 16 15 15 15 15 15 15 14 13 12 10 9 9 10 11 10 9 8 8 7 7 8 8 8 8 9 10 10 9 8 8 8 8 8 7 6 7 7 7 6 7 7 7 7 8 9 10 10 8 9 11 12 13 15 15 15 16 17 17 15 14 13 11 11 11 12 13 14 15 14 13
23 21 20 20 20 19 16 16 18 18 18 17 15 15 16 15 15 15 15 15 15 13 13 12 12 10 9 9 11 11 10 10 9 9 8 8 8 8 7 7 9 10 10 10 10 9 8 7 6 5 5 6 6 6 7 8 7 7 7 8 8 8 9 10 11 13 14 15 16 18 19 18 17 14 12 12 13 13 14 15 15 16 17 17 16
22 20 17 17 19 20 16 15 15 16 16 16 16 15 15 16 15 13 14 14 13 13 12 12 13 13 12 12 12 13 13 13 12 11 10 9 10 10 9 8 8 9 9 9 10 10 9 8 7 6 5 5 6 7 7 8 8 9 9 9 9 9 10 12 13 14 16 17 18 20 20 17 15 14 12 12 12 13 15 17 17 17 18 19 18
22 21 19 18 18 19 17 15 15 14 13 13 14 14 15 17 15 12 13 14 13 14 13 11 11 13 14 13 12 13 14 13 12 11 11 11 12 12 11 11 10 10 10 9 10 11 10 8 8 8 7 8 9 9 8 8 8 9 10 12 12 12 12 13 14 16 17 19 20 19 18 16 15 14 13 13 13 14 15 18 20 20 20 19 19
23 23 22 21 19 19 18 17 16 16 16 15 15 15 16 18 17 13 12 13 13 14 13 11 10 11 13 12 12 13 13 12 11 11 11 12 14 14 14 13 13 13 12 11 12 11 10 10 9 8 9 11 11 10 9 9 9 10 10 12 13 14 14 14 15 17 17 18 17 17 17 17 16 15 15 14 15 16 17 19 21 21 21 21 20
24 24 25 24 22 20 19 19 19 18 18 18 18 18 18 19 19 16 14 12 12 14 14 12 11 11 12 13 12 12 11 11 11 11 11 12 13 13 14 13 13 12 11 11 11 10 10 10 9 8 10 12 11 10 9 9 10 11 11 13 14 15 15 15 15 16 16 16 16 17 18 18 17 16 16 16 17 18 20 21 22 22 23 24 24
27 25 26 26 25 22 20 21 22 21 20 20 19 19 19 19 18 17 16 14 13 14 14 13 13 12 13 14 12 12 12 12 12 12 11 12 12 12 12 11 10 9 8 9 9 9 9 8 7 8 9 10 10 10 10 11 11 12 12 14 14 15 15 15 15 15 15 16 17 17 17 17 17 16 17 18 18 19 20 21 22 23 23 26 27
29 27 27 29 29 26 23 22 23 23 22 22 21 20 20 20 18 16 16 17 16 14 13 14 14 13 13 14 13 13 14 13 12 13 12 12 12 12 12 11 10 9 9 10 10 9 9 9 8 8 8 8 9 10 12 12 12 11 12 13 14 15 15 15 15 16 17 18 18 16 16 17 18 18 19 20 21 21 21 21 21 23 24 26 28
29 26 26 30 32 29 26 25 25 24 24 23 22 21 21 21 19 17 16 16 15 14 14 15 15 14 14 14 15 15 15 14 13 13 13 13 12 13 13 13 13 12 13 13 13 12 12 12 12 11 10 10 11 12 13 14 13 13 13 14 15 16 16 17 17 18 18 18 18 17 17 18 20 20 20 22 23 24 24 23 22 23 24 26 27
29 25 25 30 32 29 27 25 25 25 25 24 23 22 22 22 21 18 16 15 15 16 16 16 15 15 15 15 16 16 15 15 14 13 13 14 14 14 14 15 16 16 16 16 16 16 15 15 15 15 16 16 17 16 16 16 15 15 14 14 14 16 17 18 18 18 18 18 18 18 19 20 21 21 21 22 22 23 23 22 22 23 25 25 26
27 25 25 29 30 28 26 24 23 24 26 26 24 23 23 23 22 21 19 17 17 17 18 18 17 17 17 18 18 18 17 17 16 15 15 14 14 14 15 16 18 18 19 19 19 19 19 18 18 18 18 19 19 20 19 18 17 16 15 15 15 16 17 17 17 18 18 18 19 19 20 21 21 21 22 22 22 22 22 22 22 23 24 25 26
25 25 26 28 29 27 25 24 24 27 28 27 26 25 24 24 24 23 22 21 20 19 19 19 19 19 19 19 20 20 20 20 19 19 18 18 18 17 17 17 18 19 20 21 22 22 21 20 20 19 18 18 19 19 19 19 18 18 18 17 16 16 17 18 18 18 19 19 20 20 20 21 21 21 22 23 23 23 24 23 23 23 24 24 24
25 26 26 27 27 26 25 25 26 26 26 26 26 25 25 24 23 23 23 22 21 21 20 20 19 19 18 19 19 20 20 21 21 21 20 20 19 19 20 20 19 20 21 21 22 22 21 21 20 19 19 18 18 18 18 18 18 18 18 17 17 17 18 18 17 17 18 19 20 20 20 21 20 20 21 21 22 23 23 23 22 21 21 19 18
24 25 25 25 25 25 25 26 27 25 24 25 24 23 22 21 21 21 22 22 22 21 21 21 20 19 19 19 19 19 19 21 21 22 22 21 19 19 20 20 21 21 21 21 21 21 21 20 20 19 18 18 17 16 16 17 17 17 18 17 17 17 17 17 17 16 16 17 18 19 19 19 18 18 18 19 19 19 19 18 17 16 15 14 14
23 23 23 23 23 23 24 26 26 26 25 25 23 22 20 19 18 18 18 19 19 19 18 18 18 17 18 18 19 19 20 21 22 22 22 21 20 19 19 20 22 22 22 22 22 22 21 20 19 19 19 18 17 16 16 16 16 16 16 15 15 16 16 16 16 15 15 15 15 15 15 14 14 14 15 15 14 13 13 13 14 14 14 13 13
20 20 21 22 22 22 22 23 24 25 23 21 20 19 19 16 15 15 15 15 15 15 15 14 14 14 15 16 17 18 19 19 19 20 19 18 18 17 18 19 20 21 21 22 21 21 20 19 19 18 17 16 15 15 14 14 13 12 12 12 13 12 12 12 12 12 11 10 10 9 9 10 11 11 11 11 10 10 10 11 13 13 13 13 13
18 18 19 19 19 19 19 18 20 21 20 18 16 16 15 14 13 13 14 14 14 14 13 12 12 12 12 12 11 11 12 11 12 13 13 14 15 15 17 19 20 19 19 19 18 18 18 17 16 14 13 13 12 11 10 9 8 8 9 10 10 9 8 9 8 8 8 7 7 7 7 8 10 10 11 11 11 11 11 11 12 12 13 14 14
13 13 13 13 13 12 12 12 11 13 14 14 13 13 12 12 12 11 11 13 14 14 13 11 10 10 9 8 6 5 5 5 6 6 7 8 9 10 12 13 13 14 15 15 14 14 12 10 9 9 8 8 7 6 5 5 6 7 8 8 7 7 7 7 7 7 7 8 8 9 9 10 10 10 12 12 12 12 12 12 12 12 12 13 14
10 10 10 9 9 8 8 7 7 8 9 9 8 8 8 9 10 9 9 10 12 12 11 9 8 8 8 7 6 5 5 5 5 5 4 4 4 4 5 5 4 6 7 7 7 6 5 3 4 4 4 4 4 4 4 5 6 7 8 7 6 6 6 7 8 9 10 11 11 12 12 12 12 12 12 13 12 11 11 12 12 12 12 12 13
10 11 12 11 11 11 10 9 9 9 8 8 7 7 7 8 9 9 8 8 9 10 10 10 9 8 8 7 7 6 6 5 6 6 5 4 3 2 1 1 2 4 4 4 5 5 4 4 4 4 4 4 5 5 5 6 7 7 7 7 6 6 7 8 10 12 12 13 13 13 12 11 11 11 12 12 11 11 11 11 12 12 12 11 10
13 13 13 14 14 13 13 13 12 12 11 9 9 9 10 10 9 9 9 10 10 11 11 10 9 8 7 6 6 6 5 5 5 5 5 5 4 3 2 2 1 3 4 5 6 6 6 5 5 4 5 6 6 7 7 8 8 7 7 8 8 7 8 9 11 12 12 12 11 10 10 9 9 9 10 10 11 11 10 10 10 10 10 8 7
14 15 15 16 16 16 16 16 15 15 15 14 13 12 12 12 12 13 12 11 11 10 10 10 9 7 5 3 3 4 4 5 4 5 4 3 2 2 2 3 3 4 4 5 6 6 6 5 4 5 7 7 7 8 8 8 8 8 8 8 8 8 8 9 11 11 11 11 11 11 10 9 8 8 8 8 9 10 10 10 10 10 10 9 9
13 14 14 14 13 13 14 14 14 15 15 14 13 13 12 11 11 12 12 10 9 8 8 8 8 6 4 3 2 1 2 2 2 2 2 2 2 2 3 4 5 6 6 5 5 5 6 5 5 6 7 6 6 8 11 11 9 8 8 8 8 9 9 10 12 12 13 13 13 12 11 9 8 7 7 8 9 10 11 12 13 14 14 15 15
11 12 12 12 11 10 10 11 12 12 13 13 12 12 11 9 9 10 10 8 6 4 4 4 4 4 4 4 3 2 2 2 3 3 4 5 6 7 8 9 10 9 7 5 4 4 5 6 7 7 6 4 5 8 11 11 10 8 8 8 9 10 11 12 14 14 14 14 13 11 10 9 8 8 8 9 10 11 12 13 15 16 17 18 19
11 10 11 11 11 11 11 10 10 10 10 11 10 9 9 8 8 9 9 8 5 3 3 3 3 3 3 3 3 4 4 5 6 6 7 8 9 11 12 12 12 10 7 3 2 5 7 8 9 9 7 6 7 8 8 8 8 8 9 10 11 13 14 15 15 15 14 12 10 10 9 9 9 9 10 10 11 12 14 15 16 17 18 19 20
13 12 13 12 12 13 13 13 11 10 10 10 9 7 7 7 8 8 7 6 5 4 4 4 4 4 4 5 5 6 6 7 8 10 11 12 13 13 13 12 10 8 5 0 5 8 9 9 10 9 8 8 8 8 8 8 9 10 11 13 15 16 16 16 14 12 11 11 10 9 9 10 10 11 12 12 13 14 15 16 17 18 19 20 20
14 14 15 15 14 14 14 15 13 11 10 9 8 7 7 7 7 7 6 6 5 5 6 6 7 7 8 8 9 10 11 12 13 14 15 16 16 14 12 10 7 5 2 2 7 9 9 9 9 7 6 7 8 9 10 10 12 13 14 15 16 16 15 14 12 11 11 10 10 10 10 10 11 12 13 15 16 17 17 18 19 20 20 21 21
13 14 15 16 16 14 12 12 11 10 9 8 7 7 7 7 7 7 7 7 7 8 8 8 9 9 10 11 11 12 12 13 13 14 14 15 15 13 11 8 5 2 2 4 8 10 9 8 7 5 4 6 8 9 11 12 13 13 14 13 13 13 13 13 13 12 12 11 10 11 11 12 13 14 16 17 19 20 21 21 22 21 21 20 20
12 12 14 15 14 12 10 9 8 8 8 7 7 7 7 7 7 8 8 7 7 7 7 6 5 5 6 6 6 7 7 8 8 8 9 10 11 10 9 6 3 3 4 5 9 11 10 8 7 5 4 7 8 10 11 12 12 12 12 12 13 13 14 15 15 14 13 13 13 14 14 14 15 16 18 19 20 21 22 22 21 21 21 21 21
10 10 11 11 11 10 9 8 7 7 7 7 7 7 7 7 7 8 7 5 4 4 4 3 3 2 3 3 4 4 5 4 5 4 4 5 6 6 5 4 4 6 6 6 9 11 10 8 7 4 4 7 9 10 11 11 12 12 12 13 14 15 16 17 17 16 14 14 15 15 16 16 17 18 18 19 20 21 21 21 22 22 23 24 25
9 9 9 9 9 10 10 9 8 7 8 8 8 8 8 8 8 8 7 5 4 4 4 3 3 3 3 4 5 5 5 5 5 4 3 3 3 2 3 4 6 8 8 7 8 9 9 7 6 5 4 6 8 9 9 9 10 11 12 14 15 16 17 17 18 17 16 15 16 16 17 17 18 19 19 20 20 21 22 22 23 24 25 27 28
9 10 10 10 10 11 12 11 10 9 9 9 9 8 8 8 8 7 7 6 5 4 4 4 4 3 3 5 6 6 6 6 6 5 5 6 5 2 1 4 6 8 9 8 8 8 7 7 7 7 7 7 8 9 10 10 11 12 13 15 16 17 18 18 19 18 17 17 17 18 19 20 20 20 20 21 21 22 23 24 25 26 27 28 29
9 10 10 10 9 9 10 9 8 7 7 8 9 9 10 9 8 8 8 7 7 6 6 6 5 4 4 4 5 6 6 5 4 3 3 4 4 3 1 3 6 8 9 9 8 7 7 7 7 8 9 10 10 10 11 11 12 13 14 16 17 18 19 20 20 20 19 19 20 21 22 23 23 23 23 24 24 25 25 26 27 28 28 29 29
11 11 10 10 9 8 8 8 8 7 7 7 8 10 11 11 10 9 9 9 8 8 8 7 6 5 5 6 7 8 8 6 4 4 5 6 7 7 6 5 7 9 10 10 10 9 8 8 9 10 11 12 12 13 13 13 14 15 16 17 18 19 20 21 21 21 21 22 22 24 24 24 24 24 24 24 25 25 26 27 28 29 30 30 30
12 12 10 10 9 9 9 9 9 8 8 8 8 10 11 12 12 12 12 12 12 10 9 9 9 8 8 8 9 10 9 9 8 9 9 10 11 13 11 8 9 11 11 11 12 12 11 11 12 12 13 14 15 15 16 16 17 18 18 19 19 20 20 21 21 22 22 23 23 24 24 23 23 23 23 24 25 26 27 28 30 31 32 32 31
14 13 12 11 11 10 10 10 9 9 9 9 9 9 10 11 11 12 13 14 14 14 13 12 11 10 9 9 10 10 10 10 10 11 12 13 13 13 11 9 10 11 11 12 13 14 14 15 15 16 17 18 18 18 18 19 20 20 21 21 21 22 21 21 21 21 22 22 22 23 23 23 23 24 24 25 26 27 28 30 31 31 32 31 30
16 15 14 13 13 13 13 12 11 10 10 10 10 10 10 11 11 12 12 13 14 15 15 13 12 11 10 10 9 10 9 10 10 11 12 13 13 12 11 11 11 12 12 12 13 15 16 17 18 19 20 20 21 21 21 21 21 22 22 22 22 22 22 21 21 21 21 22 22 22 23 24 24 25 25 26 27 28 29 30 30 30 29 28 26
18 18 18 16 16 16 15 14 13 12 11 11 11 11 11 11 12 11 12 12 13 14 14 13 12 11 11 10 10 10 10 10 11 12 12 13 13 12 12 12 12 13 13 13 14 15 17 18 19 20 21 22 22 23 22 22 22 22 22 22 22 21 21 21 21 21 22 22 22 23 23 24 25 26 26 27 28 29 30 29 28 26 25 24 23
20 21 20 19 18 18 17 16 15 14 14 14 13 13 13 13 13 13 13 13 15 15 15 14 13 13 12 12 12 12 12 12 12 13 14 14 13 12 11 11 12 13 14 15 16 17 18 19 20 21 22 22 23 23 23 22 22 21 21 21 21 21 20 21 21 21 22 22 22 23 24 24 25 26 27 28 28 28 27 25 24 23 22 22 22
22 22 22 22 21 20 19 19 18 17 17 16 16 16 15 15 15 15 15 15 16 17 17 16 15 14 14 14 14 14 14 13 14 14 14 14 13 12 12 13 14 15 16 17 18 19 19 20 20 21 21 22 23 23 22 22 21 21 20 19 19 19 19 20 21 22 22 22 23 23 23 24 25 26 27 27 27 25 23 22 22 22 22 22 22
24 24 24 25 23 22 21 21 21 21 20 20 19 19 18 17 17 17 17 17 16 16 17 17 17 16 16 16 16 16 15 15 15 15 14 14 14 14 16 17 18 19 20 21 22 22 23 23 23 23 22 23 24 24 24 23 22 21 19 18 18 19 20 21 22 22 22 22 22 22 23 24 25 26 27 25 23 22 22 22 22 22 22 21 20
25 27 27 27 27 26 24 23 23 23 23 22 22 21 19 19 19 19 19 19 18 18 18 18 17 17 17 17 16 16 15 15 15 15 15 15 16 18 19 19 19 20 20 20 21 23 24 25 25 25 24 24 24 24 24 23 22 21 20 20 19 20 20 21 22 22 22 21 21 22 23 24 25 25 24 22 21 21 22 22 22 21 20 19 17
26 30 32 32 31 30 28 26 25 24 23 22 22 22 21 20 19 18 18 19 19 19 20 19 19 19 18 17 16 15 14 14 14 15 16 17 18 18 19 19 19 19 20 21 22 23 24 24 25 25 25 24 25 24 23 22 22 21 21 20 19 19 20 21 21 20 20 20 21 22 23 23 23 22 21 20 20 21 21 21 21 20 18 16 15
20 25 30 33 32 31 29 29 28 27 24 22 22 22 22 22 21 19 18 18 19 20 20 20 19 18 18 17 16 15 15 15 15 16 17 17 18 18 18 19 20 22 23 24 25 25 25 25 24 24 22 21 21 20 19 18 18 18 17 16 17 17 18 19 19 19 19 20 20 21 21 21 20 20 20 19 19 20 20 20 19 17 15 14 14
17 18 23 28 31 31 30 31 32 31 28 26 25 24 24 25 24 21 19 18 17 18 19 19 19 19 19 19 18 18 18 17 17 17 18 19 19 20 21 22 23 24 25 25 25 24 23 21 19 17 15 14 14 14 15 15 15 15 14 15 15 16 16 16 17 17 18 18 19 19 19 19 19 19 19 18 18 19 19 18 16 13 13 14 14
19 19 20 23 28 31 32 32 33 33 32 30 28 26 26 26 25 22 19 18 18 19 19 20 20 20 21 21 20 19 19 19 19 19 20 20 21 21 21 22 22 22 21 21 20 19 16 13 11 10 11 12 13 14 14 14 13 12 12 13 14 14 15 15 16 16 17 17 18 19 20 20 19 19 19 18 18 19 18 16 13 12 13 15 16
20 20 21 22 26 31 34 36 36 35 34 31 28 26 27 27 25 22 21 20 21 21 21 21 21 21 20 20 20 19 19 19 19 19 19 18 18 18 18 18 18 18 18 17 18 17 14 11 10 11 13 15 15 15 14 13 12 11 11 12 13 14 15 15 15 16 17 18 19 20 22 21 20 20 19 20 20 20 18 15 12 12 14 16 17
Wind_Direction
197 197 197 197 197 198 197 199 201 200 199 203 202 200 203 205 204 203 206 208 208 214 218 220 223 225 226 222 216 217 218 217 219 217 213 214 214 216 221 221 217 215 214 219 233 244 247 247 249 253 258 258 263 271 277 277 268 256 269 283 286 292 297 300 302 305 313 320 321 326 331 330 332 338 334 333 339 346 351 354 353 353 354 350 347
199 198 199 199 197 199 200 199 201 200 200 203 204 202 203 204 204 204 205 207 209 215 220 220 220 220 219 222 221 216 217 220 220 219 216 217 220 220 224 229 224 219 220 225 236 245 249 252 257 263 267 264 261 260 265 271 263 252 260 280 289 288 293 298 302 306 311 318 322 327 333 333 333 337 336 333 337 341 341 341 340 336 333 332 331
200 200 201 202 199 201 202 200 203 203 199 202 207 208 207 205 205 206 204 203 204 208 215 219 219 214 211 217 219 215 219 219 219 221 219 220 225 227 230 235 235 230 231 237 245 249 249 251 257 266 268 261 245 232 247 269 261 251 257 284 295 291 295 301 303 306 309 316 324 328 331 332 333 336 337 335 334 335 336 336 334 328 325 327 327
201 202 203 203 201 203 205 203 205 204 200 202 208 210 211 209 206 207 207 207 208 207 208 213 217 214 210 209 207 205 209 215 221 229 227 221 222 229 236 238 240 242 241 242 251 256 253 248 248 252 252 245 234 235 260 282 280 272 274 284 285 280 289 298 298 301 306 312 319 323 326 330 332 334 334 331 324 325 333 336 334 328 326 329 328
203 204 205 204 203 202 204 207 209 207 203 202 208 210 210 210 210 212 215 218 220 216 209 208 209 208 210 210 209 209 209 215 226 237 240 232 222 224 236 242 246 252 253 253 260 267 265 258 253 252 256 261 260 261 270 276 283 286 283 286 288 286 290 293 293 297 302 306 310 316 323 327 326 328 330 327 317 312 317 320 320 320 318 318 318
205 204 204 206 205 201 203 209 211 211 208 204 205 207 209 214 218 221 224 223 223 223 220 217 213 209 209 210 215 222 225 226 231 236 239 235 225 220 227 241 250 257 260 264 269 269 267 263 262 268 278 284 284 279 271 269 277 283 282 290 298 298 296 294 291 294 298 300 305 312 318 319 319 321 327 328 323 320 317 311 309 311 311 312 313
199 196 196 203 207 204 204 210 210 210 212 209 207 207 212 221 222 223 227 224 221 225 226 223 219 219 218 216 215 222 229 233 233 238 240 233 228 227 228 236 244 250 256 262 265 264 262 260 261 266 273 280 287 286 276 270 272 274 276 283 289 294 300 302 299 298 299 299 302 306 309 310 312 317 321 324 323 323 323 318 314 315 317 317 320
195 192 195 200 205 204 203 210 210 206 207 209 209 207 213 223 222 218 222 222 220 224 224 217 214 220 222 222 219 220 226 230 228 233 239 234 231 234 237 241 245 251 257 259 260 262 261 257 254 257 262 265 270 274 274 272 268 264 267 275 280 287 295 300 301 299 296 295 296 299 302 305 309 314 315 316 316 317 322 321 318 319 320 322 326
199 198 199 199 200 201 201 207 210 208 208 209 207 206 213 224 225 222 222 220 217 221 223 213 210 223 227 223 220 219 220 225 225 225 231 230 230 233 238 243 248 252 256 260 264 265 261 257 252 251 261 266 269 271 272 273 269 260 257 264 271 275 280 287 295 297 295 294 295 298 301 304 308 311 309 309 310 311 313 313 312 315 318 320 325
203 202 200 198 198 200 202 206 210 212 215 215 214 214 218 222 225 226 225 219 215 218 218 209 205 221 230 223 221 223 222 224 228 228 230 232 232 232 236 242 247 253 260 267 274 272 262 259 258 255 260 266 269 272 272 271 269 265 261 261 264 269 273 280 289 296 297 298 301 304 304 304 307 308 305 305 306 306 306 306 307 312 317 318 320
203 202 200 200 201 202 206 211 213 216 219 220 220 223 223 220 221 224 222 219 218 214 211 209 207 215 224 222 222 229 227 226 231 233 235 239 238 235 235 235 237 244 249 252 259 263 260 261 264 260 260 264 268 273 278 279 280 276 269 264 264 269 273 279 287 293 295 297 302 305 305 304 304 302 300 301 303 303 304 304 305 309 313 315 317
204 202 201 201 203 204 207 214 217 218 219 221 223 227 227 223 222 223 220 220 223 218 213 213 213 215 220 222 226 230 228 228 233 235 237 240 238 234 231 228 227 228 231 237 243 250 258 265 268 267 266 268 270 274 281 284 285 281 275 273 273 273 273 277 284 288 290 293 297 300 300 299 299 300 302 304 305 305 304 302 301 304 308 310 312
210 209 205 203 204 205 206 212 217 220 220 220 222 225 226 225 225 224 221 220 222 221 218 216 218 220 222 224 230 232 230 232 236 236 236 235 233 232 231 232 234 234 236 241 246 251 259 266 269 270 269 268 267 269 273 280 283 281 280 280 276 272 272 276 281 285 288 290 292 293 292 293 297 302 305 307 309 309 305 300 300 302 305 308 311
214 216 210 206 208 210 211 215 219 222 222 221 222 223 223 225 225 222 218 215 215 215 216 217 219 221 221 224 230 233 233 237 240 239 236 233 229 228 230 235 240 242 243 247 251 256 260 263 266 269 270 269 270 270 272 276 281 282 282 282 279 275 274 277 280 284 286 288 288 289 290 293 298 302 303 305 308 308 306 303 302 304 306 308 310
213 215 214 212 212 215 222 229 230 230 228 225 222 221 221 222 224 223 221 219 219 220 221 224 225 225 226 228 232 236 239 242 244 244 242 240 236 232 233 237 242 246 248 250 253 257 260 263 269 273 274 273 272 271 272 275 279 280 281 284 284 281 277 277 280 283 285 285 286 288 290 292 294 296 297 299 301 301 301 302 303 304 305 305 306
214 215 217 218 218 222 230 236 234 230 230 228 224 222 221 221 222 224 226 227 228 229 230 231 233 234 235 235 237 240 243 246 248 250 250 249 248 245 243 243 245 248 250 251 254 258 262 266 272 276 278 279 277 275 275 276 278 279 281 282 281 278 276 277 279 281 283 285 285 286 286 288 290 292 293 294 293 292 291 294 297 298 300 302 304
215 216 218 221 224 227 231 230 227 227 228 227 225 223 222 223 224 226 229 231 232 234 235 235 235 236 238 240 241 242 244 247 251 253 254 254 252 252 251 250 248 248 250 252 255 259 262 266 270 274 278 280 280 279 278 279 280 281 281 281 278 275 275 275 276 278 280 282 282 282 283 285 287 289 289 290 291 290 289 290 293 296 301 305 308
217 219 220 223 226 229 230 227 224 223 223 222 222 221 221 222 225 227 230 232 235 237 239 239 240 241 241 243 244 245 247 250 252 253 254 254 253 253 253 253 252 251 251 253 255 258 262 266 269 274 278 279 279 279 279 279 280 279 278 278 277 276 276 275 275 275 273 274 275 276 277 279 280 282 284 286 288 289 292 294 295 297 302 307 311
213 217 222 227 230 231 231 227 221 215 213 213 214 217 221 223 223 226 230 232 234 237 239 241 243 245 246 246 248 249 249 249 251 252 253 253 254 254 254 254 253 251 250 251 252 255 259 263 268 273 276 277 278 280 281 280 279 278 276 274 272 271 271 270 270 268 266 265 265 267 271 275 279 284 287 287 288 292 296 299 299 299 299 302 308
215 221 226 229 227 223 221 220 217 212 208 206 208 213 219 221 222 227 232 234 236 238 239 240 241 243 246 246 246 247 248 249 251 253 254 256 256 254 253 252 250 248 246 246 249 254 258 261 266 270 272 274 276 279 282 282 280 277 271 265 263 261 260 262 264 265 263 260 258 260 269 277 282 286 286 285 287 292 298 301 300 299 298 300 305
223 228 228 226 223 221 222 223 220 216 212 211 216 220 220 223 230 235 238 240 240 237 234 233 233 234 238 241 243 245 248 252 256 257 259 260 257 255 252 247 242 240 239 238 240 245 249 253 259 264 268 273 277 278 277 273 265 257 253 252 252 248 247 252 258 262 263 260 259 265 274 277 275 276 278 281 284 289 294 296 296 297 299 303 306
209 216 221 225 225 225 231 230 221 216 212 213 224 229 225 230 237 235 230 229 226 221 217 214 216 219 222 224 227 231 230 232 238 243 245 246 245 248 250 242 233 233 238 240 239 240 244 250 258 264 268 269 264 253 245 238 235 238 244 248 248 244 243 250 258 263 267 267 268 276 283 280 275 273 276 279 283 287 290 291 292 296 301 305 309
176 180 185 194 189 182 189 190 182 185 187 189 206 218 215 216 214 205 203 206 202 196 188 182 184 189 189 184 179 182 187 185 181 182 190 203 209 219 236 244 237 237 246 255 262 263 264 259 250 251 250 239 227 217 208 212 221 232 240 245 246 241 240 248 259 266 270 273 277 282 286 284 281 280 280 281 285 290 294 297 299 301 303 305 306
150 153 157 162 158 155 156 156 155 158 159 164 176 183 184 189 189 187 188 185 172 156 147 144 149 155 157 157 154 154 157 161 164 164 163 164 161 163 193 251 268 261 260 266 273 274 270 253 238 232 221 214 207 192 189 206 219 228 236 240 243 242 243 250 260 267 274 280 284 286 287 287 286 285 287 292 299 304 306 307 307 307 309 311 307
131 134 137 139 139 140 139 136 135 133 131 135 144 147 148 150 151 152 154 155 149 141 136 137 139 141 144 144 136 127 120 122 131 139 134 124 109 93 79 52 320 287 276 269 264 259 255 250 243 233 228 221 199 179 186 207 217 223 233 243 252 259 263 265 269 276 283 289 293 294 296 297 296 297 302 307 309 309 307 306 305 305 309 311 305
132 129 129 131 132 133 134 132 129 128 126 129 132 134 137 139 139 139 143 147 149 147 145 145 144 143 147 146 126 111 112 119 127 135 133 119 96 78 53 33 7 337 307 280 268 262 255 247 234 227 231 224 197 181 195 212 218 220 231 246 261 272 278 280 284 291 298 304 309 311 312 310 308 309 312 309 306 306 307 308 309 309 311 312 310
143 139 137 138 139 142 146 145 143 140 138 139 140 138 139 144 148 150 152 154 154 152 152 154 157 162 179 197 199 160 146 154 168 181 201 243 280 310 331 340 341 338 324 296 272 259 248 229 205 209 222 217 197 194 206 216 222 227 235 250 267 280 289 296 301 306 310 314 317 317 314 312 312 312 310 306 307 311 313 315 315 314 315 316 316
158 156 153 152 153 159 164 162 159 156 152 151 150 147 147 152 158 157 157 157 156 157 167 176 182 191 203 216 234 250 263 278 281 285 293 300 306 311 316 321 327 330 328 313 277 243 225 204 189 193 203 194 181 189 199 207 217 228 242 258 274 285 294 300 302 303 305 310 314 313 311 314 318 318 317 317 317 317 317 317 317 317 317 318 318
173 172 169 167 172 179 179 174 170 166 161 160 161 157 152 155 161 162 159 158 161 174 197 208 218 231 242 257 275 286 294 298 298 298 300 300 301 303 307 315 323 330 336 331 234 205 199 191 187 195 206 206 197 194 199 212 230 245 259 271 280 287 292 294 296 297 300 306 312 313 317 324 325 322 321 321 322 321 320 321 321 320 320 321 323
182 182 178 177 183 188 185 182 181 179 176 177 179 174 166 163 168 172 174 178 186 201 215 227 243 258 270 280 286 288 290 290 290 291 292 293 296 299 304 312 321 329 341 30 180 187 188 188 192 202 217 229 232 229 232 246 261 270 276 281 286 290 293 297 301 305 310 316 322 324 327 328 325 323 322 322 322 321 321 322 323 323 324 326 328
184 183 180 183 189 190 185 184 185 184 183 187 192 195 193 188 187 193 202 209 215 219 225 237 251 261 267 273 276 278 280 280 281 282 285 288 292 293 298 308 318 324 326 178 179 185 188 192 198 210 228 243 252 255 258 266 275 280 284 286 288 292 297 303 312 320 323 328 334 333 329 327 325 324 322 320 320 320 321 323 324 326 328 330 330
184 183 183 188 194 193 190 191 191 187 185 188 193 200 207 212 215 221 226 232 239 241 242 247 255 261 266 269 271 273 277 278 280 283 284 286 287 286 289 298 304 284 233 187 185 189 193 196 204 219 245 260 266 271 273 277 282 287 291 294 296 301 308 316 325 329 329 330 332 328 325 325 324 322 319 318 319 321 323 325 327 329 330 331 330
183 182 184 192 200 202 202 203 204 200 197 195 193 196 206 217 225 229 233 237 243 244 241 241 244 250 260 267 270 275 281 284 290 294 292 289 290 288 286 288 262 211 202 191 189 192 197 205 215 233 272 285 286 286 289 294 300 304 308 311 313 316 319 322 326 328 326 324 323 322 323 324 322 319 318 318 320 322 324 326 327 329 329 328 327
187 185 189 200 211 217 215 213 215 217 215 214 213 213 216 220 223 226 228 227 224 220 218 222 230 240 255 270 279 283 291 303 319 327 317 305 302 294 279 263 224 205 201 194 191 194 202 214 223 238 280 294 297 301 305 308 311 310 311 312 314 315 317 318 320 322 322 320 319 318 319 319 317 316 315 316 318 320 322 323 325 325 325 324 323
201 205 212 219 226 230 229 229 234 237 236 233 232 229 225 223 221 223 224 224 225 229 236 245 255 269 286 300 303 304 317 341 360 18 38 39 12 317 259 232 213 206 204 198 195 199 207 219 223 223 245 272 285 293 296 296 295 294 297 301 304 306 309 310 312 313 313 311 310 311 312 313 312 312 313 314 316 317 318 319 320 320 320 320 320
216 218 225 232 234 231 231 234 239 240 235 232 231 230 228 226 225 225 225 223 223 232 246 250 254 272 294 303 305 310 329 355 14 40 69 71 62 43 260 232 217 210 206 205 206 209 214 225 232 234 241 253 265 273 278 281 284 287 291 295 298 300 303 306 308 309 307 306 305 305 306 306 305 306 307 309 310 311 312 313 313 314 314 315 316
223 221 223 228 229 226 225 227 227 222 217 216 218 222 225 228 228 225 222 220 216 217 229 242 250 260 271 282 292 299 313 339 7 34 52 44 33 15 296 239 229 219 211 209 213 221 230 239 242 242 244 249 255 260 265 270 276 282 287 290 293 297 300 303 305 306 306 305 305 304 304 302 301 301 302 303 304 305 306 307 307 308 310 311 312
227 225 222 222 221 218 217 216 211 208 211 213 214 216 221 228 230 228 227 231 231 224 223 233 245 255 265 276 284 288 295 307 319 316 311 317 323 324 310 265 242 238 233 228 228 232 238 245 247 247 248 252 257 261 265 269 272 277 282 286 290 294 297 299 300 301 302 303 303 303 302 300 298 298 299 300 301 302 303 305 307 308 310 313 315
235 236 234 230 223 216 213 213 212 213 216 218 218 218 220 224 229 230 231 236 240 239 235 237 245 255 264 271 275 281 288 295 299 302 306 308 313 318 316 290 254 248 249 248 245 244 245 250 255 257 259 262 265 268 271 274 277 280 283 286 289 292 293 294 296 297 299 301 302 302 302 300 300 301 302 303 304 306 307 309 311 313 315 318 319
239 241 242 239 233 226 222 220 221 223 223 223 224 225 224 225 229 232 233 234 238 241 241 243 249 256 260 264 268 274 279 285 292 300 307 311 313 313 306 284 257 250 252 254 255 256 258 260 263 266 268 270 273 274 277 279 282 285 287 289 290 291 292 293 294 296 298 299 300 300 301 302 303 304 305 305 306 307 308 309 310 312 314 316 316
241 242 242 239 233 230 229 227 227 231 233 232 232 232 230 230 231 233 234 234 236 238 240 242 248 254 256 258 261 263 269 279 291 297 301 305 306 299 285 268 255 251 253 255 258 261 265 268 269 272 274 276 279 281 282 284 286 288 289 290 291 292 292 293 295 296 297 298 298 297 298 299 300 302 304 305 305 305 306 307 309 310 312 313 313
242 243 244 241 236 233 233 233 234 235 236 238 239 238 238 238 238 239 241 240 239 240 240 240 242 246 248 249 251 257 266 278 287 293 299 299 294 283 270 262 257 257 261 264 267 269 272 274 276 278 279 280 282 283 284 286 286 287 288 288 289 290 291 292 294 295 296 297 298 298 298 299 301 303 305 306 307 308 310 311 313 315 316 316 317
244 244 245 244 242 241 239 238 237 237 238 240 242 241 240 242 244 245 245 244 243 242 240 239 239 240 242 243 247 253 262 272 281 288 292 289 280 270 263 262 264 268 272 275 277 278 280 280 282 284 285 286 287 287 288 288 288 287 287 287 288 290 292 293 294 295 296 297 298 299 301 303 305 307 308 310 312 314 316 318 319 320 320 320 320
251 250 248 247 246 245 243 241 240 240 241 241 241 241 240 239 240 243 245 245 243 240 239 239 241 242 242 244 248 252 257 265 272 276 275 270 266 265 266 269 273 277 280 283 285 286 288 288 289 289 290 291 292 292 293 293 293 292 292 291 291 292 294 296 297 299 300 302 304 306 308 309 309 310 312 314 317 319 320 321 322 322 321 320 320
254 252 252 249 247 246 246 245 243 242 241 239 239 239 238 237 238 241 243 243 241 240 239 240 241 243 243 245 247 250 254 259 263 266 265 264 265 268 270 273 276 278 281 283 285 286 288 290 290 291 292 292 292 293 293 294 295 296 296 296 296 296 298 301 303 305 307 308 309 309 310 310 311 312 314 316 319 320 320 320 321 320 320 319 320
248 246 247 247 247 248 248 248 247 244 241 239 238 238 239 241 242 242 240 237 238 240 241 240 239 240 241 243 245 249 254 258 261 263 265 268 271 273 275 276 278 278 279 282 284 285 287 288 288 289 290 290 291 291 293 294 295 297 297 298 299 300 301 303 306 309 311 311 310 309 309 309 311 312 314 316 317 317 317 318 318 318 318 320 322
251 245 244 244 247 249 249 249 249 246 242 239 240 241 243 246 247 243 238 235 235 238 240 239 238 238 241 244 248 251 255 258 260 264 268 271 274 277 278 278 280 281 282 284 285 286 287 287 288 288 288 288 288 289 291 292 294 295 296 297 299 300 301 303 306 308 309 309 310 311 311 312 313 314 314 316 316 316 316 317 318 318 319 321 322
263 255 249 247 249 250 248 246 244 242 239 239 241 243 247 251 250 245 239 236 236 236 236 235 236 239 242 245 249 252 256 260 264 268 270 271 271 272 274 276 279 282 285 286 287 288 288 289 289 288 287 287 287 288 290 293 295 297 299 300 299 299 300 302 303 305 307 309 311 313 313 315 316 317 317 317 317 317 319 320 320 321 322 322 321
264 262 257 251 248 246 245 244 242 242 244 245 244 245 248 251 248 242 236 232 231 230 229 231 235 239 242 244 248 253 259 264 267 266 265 265 267 269 273 277 280 283 286 287 289 290 292 291 288 287 288 289 291 294 297 300 300 299 300 300 299 300 302 305 307 310 312 313 315 317 318 319 321 323 324 323 322 323 325 326 326 327 326 324 323
257 256 257 254 248 243 242 242 243 246 251 254 253 249 246 242 239 235 230 227 226 226 227 231 236 240 243 247 253 258 262 264 264 262 262 264 267 272 276 280 284 287 288 289 291 294 294 290 287 290 295 299 302 304 305 305 303 301 299 300 302 305 309 313 315 317 317 318 320 322 322 322 324 328 330 329 329 329 330 329 327 325 321 316 314
267 263 261 260 255 249 244 242 244 249 252 253 251 244 237 234 233 233 229 226 225 226 227 230 235 240 246 252 257 261 263 264 264 265 267 271 276 281 287 292 296 298 298 298 299 300 299 295 297 302 303 303 304 306 306 306 306 307 308 308 309 312 314 316 316 316 316 319 321 321 320 322 327 332 335 334 333 333 332 330 325 318 313 312 312